Regional Weather Roundup
Issued by NWS

Home | Current Version | Previous Version | Text Only | Print | Product List | Glossary On
Versions: 1 2 3 4 5 6 7 8 9 10 11 12 13 14 15 16 17 18 19 20 21 22 23 24 25 26 27
000
ASUS43 KMPX 101810
RWRMN
WEATHER ROUNDUP FOR MINNESOTA
NATIONAL WEATHER SERVICE TWIN CITIES/CHANHASSEN MN
100 PM CDT MON MAY 10 2021


NOTE: "FAIR" INDICATES FEW OR NO CLOUDS BELOW 12,000 FEET WITH NO
SIGNIFICANT WEATHER AND/OR OBSTRUCTIONS TO VISIBILITY. N/A MEANS
CURRENT SKY AND/OR WEATHER CONDITIONS ARE NOT AVAILABLE.

MNZ060>063-068>070-101900-
   Twin Cities Metro

CITY           SKY/WX    TMP DP  RH WIND       PRES   REMARKS
TWIN CITIES    PTSUNNY   51  24  34 NE12      30.23S
6HR MIN TEMP:  42; 6HR MAX TEMP:  53; 6HR PCP: TRACE;

ST PAUL        PTSUNNY   54  24  31 N12       30.23F
CRYSTAL        CLOUDY    53  22  29 NE6       30.22S
BLAINE         PTSUNNY   52  21  30 NE12G24   30.23S
LAKEVILLE      PTSUNNY   52  21  30 N9        30.21F
EDEN PRAIRIE   CLOUDY    51  26  37 NW7       30.21S
6HR MIN TEMP:  42; 6HR MAX TEMP:  52; 6HR PCP: TRACE;

SOUTH ST PAUL  PTSUNNY   52  23  31 E5        30.22F
$$
MNZ001>005-007-008-013>017-022>024-027-028-101900-
   Northwest Minnesota

CITY           SKY/WX    TMP DP  RH WIND       PRES   REMARKS
BEMIDJI        CLOUDY    49  21  33 NE7       30.27F
HALLOCK        SUNNY     52  19  28 NE6       30.31F
ROSEAU           N/A     52 N/A N/A N7        30.31F
WARROAD        SUNNY     45  28  53 E10G17    30.33F
THIEF RVR FALL PTSUNNY   49  21  33 N8        30.31F
CROOKSTON      MOSUNNY   48  19  32 N9        30.30F
FOSSTON        MOSUNNY   46  18  31 E10       30.29F
DETROIT LAKES  MOSUNNY   48  18  29 VRB5G13   30.27S
MOORHEAD       SUNNY     52  12  20 NE8       30.29F
PARK RAPIDS    CLOUDY    47  19  33 N9        30.26F
MAHNOMEN       MOCLDY    49  21  33 N3        30.28F
$$
MNZ006-009>011-018-025>026-101900-
   North Central Minnesota

CITY           SKY/WX    TMP DP  RH WIND       PRES   REMARKS
BAUDETTE       MOSUNNY   49  22  34 VRB5      30.31F
FLAG ISLAND    PTSUNNY   43  18  36 N3        30.32F
INTL FALLS     MOSUNNY   46  22  38 NE9G18    30.29F
6HR MIN TEMP:  37; 6HR MAX TEMP:  47;

WASKISH        PTSUNNY   52  19  28 NE7       30.29S
BIG FORK       PTSUNNY   46  19  34 N6        30.31F
LONGVILLE      CLOUDY    46  19  34 NE6       30.27S
GRAND RAPIDS   CLOUDY    48  20  32 VRB3      30.27F
CRANE LAKE     CLOUDY    43  21  42 N5        30.30F
ORR            PTSUNNY   48  18  29 NW8       30.25S
COOK           PTSUNNY   48  25  40 N8        30.25F
WALKER         CLOUDY    45  20  36 E5        30.27S
$$
MNZ012-019>021-037-101900-
   Northeast Minnesota

CITY           SKY/WX    TMP DP  RH WIND       PRES   REMARKS
DULUTH         PTSUNNY   48  22  35 N9        30.23F
6HR MIN TEMP:  36; 6HR MAX TEMP:  48; 6HR PCP:  0.01;

ELY            CLOUDY    45  19  36 NW8       30.25S
HIBBING        PTSUNNY   48  20  32 N10       30.24F
EVELETH        CLOUDY    46  21  36 N5        30.25S
DULUTH HARBOR  MOSUNNY   46  30  53 E7        30.27F
TWO HARBORS    MOSUNNY   46  28  49 SE6       30.24S
SILVER BAY     CLOUDY    43  25  49 SE7       30.24F
GRAND MARAIS     N/A     48  24  39 MISG      30.25S
G MARAIS ARPRT CLOUDY    39  21  48 NW6       30.22S
$$
MNZ029>031-032-039>041-046>048-054>057-064-101900-
   West Central Minnesota

CITY           SKY/WX    TMP DP  RH WIND       PRES   REMARKS
FERGUS FALLS   CLOUDY    48  25  40 CALM      30.24S
WHEATON        CLOUDY    50  19  29 W5        30.29S
MORRIS         MOSUNNY   52  12  20 N8        30.26F
ALEXANDRIA     CLOUDY    49  20  31 N12       30.27S
ELBOW LAKE     CLOUDY    49  23  35 E6        30.27F
WADENA         CLOUDY    48  25  40 E9        30.27S
GLENWOOD       MOSUNNY   50  21  32 N7G17     30.26F
APPLETON       PTSUNNY   54  19  26 N12       30.24F
BENSON         PTSUNNY   52  23  32 E12G17    30.26F
ORTONVILLE     PTSUNNY   50  25  37 NE7       30.26S
MADISON        MOSUNNY   55  28  35 NE13G18   30.26S
WILLMAR        FAIR      52  19  28 N5        30.27F
$$
MNZ033>034-036-042>043-049>051-058-059-101900-
   Central Minnesota

CITY           SKY/WX    TMP DP  RH WIND       PRES   REMARKS
ST CLOUD       CLOUDY    49  21  33 NE8       30.25S
6HR MIN TEMP:  40; 6HR MAX TEMP:  49;

SAUK CENTRE    CLOUDY    47  21  34 N10       30.27S
PAYNESVILLE    CLOUDY    50  23  34 NE12G20   30.26S
AITKIN         PTSUNNY   46  19  34 CALM      30.26F
PINE RIVER     CLOUDY    48  23  37 CALM      30.29F
BRAINERD       CLOUDY    49  18  29 NW8G17    30.26F
STAPLES        CLOUDY    48  18  29 NE6       30.27S
LONG PRAIRIE   CLOUDY    46  21  36 NE7       30.27S
LITTLE FALLS   CLOUDY    46  12  25 CALM      30.26F
CAMP RIPLEY    CLOUDY    49  22  34 N9        30.27S
LITCHFIELD     MOSUNNY   52  25  35 N15       30.24S
BUFFALO        PTSUNNY   52  21  30 MISG      30.24F
MAPLE LAKE     CLOUDY    53  28  36 N12       30.25S
HUTCHINSON     CLOUDY    52  29  41 N9G21     30.24S
$$
MNZ037-044-045-052-053-101900-
   East Central Minnesota

CITY           SKY/WX    TMP DP  RH WIND       PRES   REMARKS
PRINCETON      CLOUDY    50  21  32 NE9       30.26S
MORA           SUNNY     46  23  39 E5        30.27S
CAMBRIDGE      PTSUNNY   52  28  40 NE9       30.25F
RUSH CITY      CLOUDY    47  21  34 CALM      30.26S
MOOSE LAKE     CLOUDY    46  25  42 N8        30.24S
HINCKLEY       MOCLDY    48  23  37 CALM      30.25F
CLOQUET        PTSUNNY   45  19  36 CALM      30.23F
$$
MNZ071>073-080-081-089-090-097-098-101900-
   Southwest Minnesota

CITY           SKY/WX    TMP DP  RH WIND       PRES   REMARKS
MONTEVIDEO     PTSUNNY   52  19  28 NE14      30.25S
GRANITE FALLS  PTSUNNY   56  28  34 NE8G16    30.25S
CANBY          CLOUDY    55  27  34 NE8       30.24F
MARSHALL       CLOUDY    51  29  42 NE14G23   30.23R
REDWOOD FALLS  PTSUNNY   54  26  34 NE10G18   30.22F
OLIVIA         MOSUNNY   52  23  32 NE13G22   30.23S
PIPESTONE        N/A     54  27  35 NE5G17    30.19S
WINDOM         SUNNY     54  27  35 N14G21    30.18F
WORTHINGTON    MOSUNNY   55  27  34 N13G20    30.18F
JACKSON        MOSUNNY   54  27  35 NE14G23   30.18F
TRACY          PTSUNNY   54  27  35 E13G23    30.21S
SLAYTON        MOSUNNY   53  23  31 NE14      30.20F
$$
MNZ065>067-074>077-082>085-091>093-101900-
   South Central Minnesota

CITY           SKY/WX    TMP DP  RH WIND       PRES   REMARKS
MANKATO        PTSUNNY   53  28  38 N12G20    30.21F
NEW ULM        PTSUNNY   52  25  35 N9        30.22S
ST JAMES       PTSUNNY   54  27  35 NE10      30.20S
FAIRMONT       PTSUNNY   55  28  35 NE14      30.18F
GLENCOE        PTSUNNY   51  26  37 NE9       30.22S
FARIBAULT      MOSUNNY   52  25  35 NE10G16   30.20F
OWATONNA       MOSUNNY   52  32  46 N10G21    30.20F
WASECA         PTSUNNY   52  28  40 NE9G17    30.21F
ALBERT LEA     PTSUNNY   54  30  40 NE15      30.18S
$$
MNZ078>079-086>088-094>096-101900-
   Southeast Minnesota

CITY           SKY/WX    TMP DP  RH WIND       PRES   REMARKS
ROCHESTER      CLOUDY    50  33  52 NE6       30.20F
6HR MIN TEMP:  40; 6HR MAX TEMP:  50; 6HR PCP: TRACE;

RED WING       PTSUNNY   52  21  30 NE5       30.20F
STANTON        PTSUNNY   53  28  39 NE12      30.20F
DODGE CENTER   MOSUNNY   48  28  46 NE9       30.19F
WINONA         MOSUNNY   52  34  50 CALM      30.21F
AUSTIN         PTSUNNY   52  34  50 NE15      30.18S
PRESTON        MOSUNNY   47  32  56 NE12      30.20R
$$
ABBREVIATIONS USED IN REMARKS
   TC - TEMPERATURES IN CELSIUS
  WCI - WIND CHILL INDEX
   HX - HEAT INDEX
  VSB - VISIBILITY
$$



USA.gov is the U.S. government's official web portal to all federal, state and local government web resources and services.